Regional Weather Roundup
Issued by NWS

Home | Current Version | Previous Version | Text Only | Print | Product List | Glossary On
Versions: 1 2 3 4 5 6 7 8 9 10 11 12 13 14 15 16 17 18 19 20 21 22 23 24 25 26 27 28 29 30 31 32 33 34 35 36 37 38 39 40 41 42 43 44 45 46 47 48 49 50
000
ASUS44 KFWD 010310
RWRTX
NORTH TEXAS HOURLY WEATHER ROUNDUP
NATIONAL WEATHER SERVICE FORT WORTH TX
900 PM CST SAT FEB 28 2015

NOTE: "FAIR" INDICATES FEW OR NO CLOUDS BELOW 12,000 FEET WITH NO
SIGNIFICANT WEATHER AND/OR OBSTRUCTIONS TO VISIBILITY.

TXZ118-119-010400-
DALLAS/FORT WORTH METROPLEX

CITY           SKY/WX    TMP DP  RH WIND       PRES   REMARKS
DFW AIRPORT    FRZ DRZL  31  29  92 NE8       30.33R FOG     WCI  23
DALLAS LOVE    FRZ DRZL  32  30  92 NE5       30.34R FOG     WCI  27
FTW MEACHAM    FRZ RAIN  32  30  92 NE5       30.33R FOG     WCI  27
DAL-EXECUTIVE  FRZ RAIN  31  30  96 NE8       30.32R FOG     WCI  23
FTW-ALLIANCE   FRZ DRZL  30  29  96 NE6       30.33R FOG     WCI  24
FTW-SPINKS     CLOUDY    32  31  96 N5        30.35R FOG     WCI  27
ARLINGTON      FRZ RAIN  33  29  85 NE5       30.33R FOG     WCI  29
GRAND PRAIRIE  CLOUDY    32  32 100 N6        30.35R WCI  26
ADDISON        CLOUDY    32  28  86 NE7       30.34R FOG     WCI  26
MESQUITE       CLOUDY    32  31  95 N6        30.34R WCI  26
LANCASTER      RAIN      32  29  90 NE3       30.34R
$$

TXZ091>094-102>105-117-120-121-131>134-010400-
NORTH CENTRAL TEXAS

CITY           SKY/WX    TMP DP  RH WIND       PRES   REMARKS
SHRMAN/DENISON CLOUDY    32  32 100 E6        30.35R FOG     WCI  26
GAINESVILLE    MIX PCPN  30  28  95 E5        30.35S WCI  25
BOWIE          MIX PCPN  29  29  99 CALM      30.32R
BRIDGEPORT     RAIN      30  30 100 CALM      30.34S
DECATUR        CLOUDY    29  29 100 CALM      30.31R FOG
DENTON         MIX PCPN  30  28  92 E7        30.34R WCI  23
MCKINNEY       CLOUDY    31  30  96 NE5       30.34S WCI  26
GREENVILLE     CLOUDY    32  32 100 N3        30.35R
TERRELL        LGT RAIN  33  30  88 N9        30.34R FOG     WCI  25
WAXAHACHIE     CLOUDY    32  32 100 N7        30.33R FOG     WCI  25
CLEBURNE       LGT RAIN  32  32 100 CALM      30.33R
GRANBURY       DRIZZLE   32  31  95 CALM      30.34R
$$

TXZ083>090-098>101-113>116-127>130-139>142-154-155-010400-
WESTERN NORTH TEXAS

CITY           SKY/WX    TMP DP  RH WIND       PRES   REMARKS
WICHITA FALLS  CLOUDY    29  26  89 NE6       30.32S FOG     WCI  23
WF-KICKAPOO    CLOUDY    31  30  96 NE6       30.34R FOG     WCI  25
VERNON         CLOUDY    28  24  84 E3        30.33R
ABILENE        CLOUDY    28  26  92 NE3       30.26R FOG
ABILENE-DYESS  FRZ DRZL  28  27  93 CALM      30.25R FOG
BRECKENRIDGE   CLOUDY    31  31  99 CALM      30.30R FOG
GRAHAM         CLOUDY    30  30 100 CALM      30.30R FOG
MINERAL WELLS  CLOUDY    30  28  92 NE5       30.30R FOG     WCI  25
STEPHENVILLE   CLOUDY    31  29  94 NE3       30.31R
COMANCHE       DRIZZLE   31  31 100 NE3       30.28S
BROWNWOOD      CLOUDY    32  32 100 N13       30.28R FOG     WCI  22
COLEMAN        CLOUDY    31  31 100 E5        30.26R FOG     WCI  26
BRADY          CLOUDY    28  28 100 NE5       30.24R FOG     WCI  23
$$

TXZ143>147-156>162-174-175-010400-
CENTRAL TEXAS

CITY           SKY/WX    TMP DP  RH WIND       PRES   REMARKS
WACO           MIX PCPN  32  31  96 N10       30.32R FOG     WCI  24
WACO-MCGREGOR    N/A     34  27  75 N10       30.32R WCI  26
HILLSBORO      CLOUDY    33  31  91 N6        30.33R WCI  27
CORSICANA      MIX PCPN  35  32  88 N10       30.32R WCI  27
MEXIA          RAIN      34  33  96 N8        30.29R WCI  27
HEARNE         CLOUDY    41  37  85 NW5       30.29R WCI  38
CAMERON        CLOUDY    37  35  94 N9        30.29R WCI  30
TEMPLE         CLOUDY    34  28  80 N13       30.29R WCI  25
KILLEEN        FRZ DRZL  32  32  99 N8        30.28R FOG     WCI  25
KILLEEN-SKYLRK CLOUDY    34  27  75 CALM      30.28R
FORT HOOD      LGT RAIN  32  32 100 N10       30.28R VSB 3/4 WCI  24
GATESVILLE     CLOUDY    32  32 100 CALM      30.32R FOG
HAMILTON       MIX PCPN  32  32 100 NE6       30.29R WCI  26
LAMPASAS       CLOUDY    33  32  98 CALM      30.27R FOG
$$

TXZ095>097-106>112-122>126-135>138-148>153-164>167-010400-
EAST TEXAS

CITY           SKY/WX    TMP DP  RH WIND       PRES   REMARKS
PARIS          CLOUDY    30  28  93 CALM      30.36S
SULPHUR SPRNGS CLOUDY    33  32  98 N7        30.37R WCI  26
MOUNT PLEASANT CLOUDY    36  32  84 N3        30.36R
GILMER         DRIZZLE   37  30  77 N3        30.32S
MINEOLA        CLOUDY    36  34  93 NE6       30.34R WCI  31
TYLER          CLOUDY    37  32  82 N7        30.31R WCI  32
LONGVIEW       CLOUDY    42  31  64 NE5       30.31R WCI  39
MARSHALL       MOCLDY    43  33  68 N5        30.33S
ATHENS         DRIZZLE   34  32  93 N8        30.30S WCI  27
PALESTINE      CLOUDY    41  41  97 NW3       30.31R FOG
JACKSONVILLE   CLOUDY    44  37  76 NE5       30.30R
HENDERSON      CLOUDY    42  34  72 NE3       30.30S
NACOGDOCHES    CLOUDY    46  37  71 E3        30.30R
LUFKIN         CLOUDY    50  39  66 NE6       30.27S
$$

SUPPLEMENTAL OBSERVATIONS (CENTRAL)

CITY           SKY/WX    TMP DP  RH WIND       PRES   REMARKS
$$

SUPPLEMENTAL OBSERVATIONS (WEST)

CITY           SKY/WX    TMP DP  RH WIND       PRES   REMARKS
$$

SUPPLEMENTAL OBSERVATIONS (EAST)

CITY           SKY/WX    TMP DP  RH WIND       PRES   REMARKS
$$

SUPPLEMENTAL OBSERVATIONS ARE A COLLECTION OF AUTOMATED INSTRUMENTS
THAT ARE MAINTAINED BY A VARIETY OF FEDERAL AND STATE AGENCIES.
CERTAIN ELEMENTS...SUCH AS HUMIDITY VALUES AND SUSTAINED WIND
SPEEDS...MAY BE APPROXIMATED.




USA.gov is the U.S. government's official web portal to all federal, state and local government web resources and services.